Location: Zagreb
(45.8000°N, 16.0000°E)
Time: 15:38:14
(UTC+02:00)

ISS - Visible Passes

Search period start: 26 June 2022 00:00
Search period end: 06 July 2022 00:00
Orbit: 415 x 420 km, 51.6° (Epoch: 26 June)

Date Brightness Start Highest point End Pass type
(mag) Time Alt. Az. Time Alt. Az. Time Alt. Az.
26 Jun -1.5 04:09:02 10° S 04:11:12 16° SE 04:13:23 10° E visible
28 Jun -2.9 04:08:58 12° SSW 04:11:52 39° SE 04:15:04 10° ENE visible
29 Jun -2.3 03:23:05 20° S 03:24:22 25° SE 03:27:13 10° E visible
30 Jun -1.7 02:37:20 16° SE 02:37:20 16° SE 02:39:18 10° E visible
30 Jun -3.7 04:10:17 11° WSW 04:13:33 86° NNW 04:16:57 10° ENE visible
01 Jul -3.7 03:24:41 27° SW 03:26:20 63° SSE 03:29:42 10° ENE visible
02 Jul -3.2 02:39:13 40° SSE 02:39:22 40° SE 02:42:35 10° ENE visible
02 Jul -2.8 04:12:56 10° W 04:16:13 44° NNW 04:19:30 10° NE visible
03 Jul -1.8 01:53:54 20° ESE 01:53:54 20° ESE 01:55:31 10° E visible
03 Jul -3.3 03:26:53 17° W 03:29:18 59° NNW 03:32:41 10° ENE visible
04 Jul -3.8 02:41:42 45° WSW 02:42:38 83° NNW 02:46:04 10° ENE visible
04 Jul -2.0 04:16:44 10° WNW 04:19:50 31° N 04:22:57 10° ENE visible
05 Jul -3.5 01:56:40 57° E 01:56:40 57° E 01:59:35 10° ENE visible
05 Jul -2.2 03:30:06 10° W 03:33:16 35° NNW 03:36:28 10° NE visible
